Time,TemperatureF,DewpointF,PressureIn,WindDirection,WindDirectionDegrees,WindSpeedMPH,WindSpeedGustMPH,Humidity,HourlyPrecipIn,Conditions,Clouds,dailyrainin,SoftwareType,DateUTC
2013-01-06 00:13:00,30.3,28.0,29.90,South,174,1.0,3.0,89,0.00,,,0.00,weatherlink.com 1.10,2013-01-06 05:13:00,
2013-01-06 00:28:00,30.7,28.0,29.88,SSE,157,0.0,3.0,88,0.00,,,0.00,weatherlink.com 1.10,2013-01-06 05:28:00,
2013-01-06 00:43:00,30.7,28.0,29.89,WNW,285,1.0,4.0,89,0.00,,,0.00,weatherlink.com 1.10,2013-01-06 05:43:00,
2013-01-06 00:58:00,31.0,28.0,29.88,NE,50,4.0,4.0,89,0.00,,,0.00,weatherlink.com 1.10,2013-01-06 05:58:00,
2013-01-06 01:13:00,30.9,28.0,29.88,ENE,71,0.0,3.0,88,0.00,,,0.00,weatherlink.com 1.10,2013-01-06 06:13:00,
2013-01-06 01:28:00,30.8,28.0,29.88,NE,55,2.0,3.0,90,0.00,,,0.00,weatherlink.com 1.10,2013-01-06 06:28:00,
2013-01-06 01:43:00,31.2,29.0,29.87,ENE,69,7.0,11.0,90,0.00,,,0.00,weatherlink.com 1.10,2013-01-06 06:43:00,
2013-01-06 01:58:00,31.1,29.0,29.87,East,79,9.0,11.0,90,0.00,,,0.00,weatherlink.com 1.10,2013-01-06 06:58:00,
2013-01-06 02:13:00,31.0,29.0,29.86,East,79,9.0,13.0,91,0.00,,,0.00,weatherlink.com 1.10,2013-01-06 07:13:00,
2013-01-06 02:28:00,30.8,29.0,29.86,ESE,109,5.0,11.0,92,0.00,,,0.00,weatherlink.com 1.10,2013-01-06 07:28:00,
2013-01-06 02:43:00,30.8,29.0,29.86,East,96,8.0,12.0,93,0.00,,,0.00,weatherlink.com 1.10,2013-01-06 07:43:00,
2013-01-06 02:58:00,30.7,29.0,29.86,East,94,7.0,9.0,94,0.00,,,0.00,weatherlink.com 1.10,2013-01-06 07:58:00,
2013-01-06 03:13:00,30.5,29.0,29.86,SE,132,4.0,11.0,94,0.00,,,0.00,weatherlink.com 1.10,2013-01-06 08:13:00,
2013-01-06 03:28:00,30.3,29.0,29.85,ENE,75,5.0,14.0,94,0.00,,,0.00,weatherlink.com 1.10,2013-01-06 08:28:00,
2013-01-06 03:43:00,30.1,29.0,29.85,East,98,9.0,14.0,94,0.00,,,0.00,weatherlink.com 1.10,2013-01-06 08:43:00,
2013-01-06 03:58:00,29.9,28.0,29.86,East,83,6.0,9.0,94,0.00,,,0.00,weatherlink.com 1.10,2013-01-06 08:58:00,
2013-01-06 04:13:00,30.0,29.0,29.85,ESE,115,8.0,11.0,94,0.00,,,0.00,weatherlink.com 1.10,2013-01-06 09:13:00,
2013-01-06 04:28:00,29.8,29.0,29.85,ESE,104,0.0,5.0,95,0.00,,,0.00,weatherlink.com 1.10,2013-01-06 09:28:00,
2013-01-06 04:43:00,29.9,29.0,29.85,WSW,244,0.0,3.0,95,0.00,,,0.00,weatherlink.com 1.10,2013-01-06 09:43:00,
2013-01-06 04:58:00,30.0,29.0,29.84,East,94,3.0,5.0,95,0.00,,,0.00,weatherlink.com 1.10,2013-01-06 09:58:00,
2013-01-06 05:13:00,30.0,29.0,29.84,ENE,61,7.0,9.0,95,0.00,,,0.00,weatherlink.com 1.10,2013-01-06 10:13:00,
2013-01-06 05:28:00,29.7,29.0,29.84,East,83,9.0,10.0,95,0.00,,,0.00,weatherlink.com 1.10,2013-01-06 10:28:00,
2013-01-06 05:43:00,29.4,28.0,29.84,East,82,9.0,10.0,95,0.00,,,0.00,weatherlink.com 1.10,2013-01-06 10:43:00,
2013-01-06 05:58:00,29.1,28.0,29.84,NE,39,10.0,12.0,95,0.00,,,0.00,weatherlink.com 1.10,2013-01-06 10:58:00,
2013-01-06 06:13:00,28.1,27.0,29.86,NE,53,10.0,14.0,94,0.00,,,0.00,weatherlink.com 1.10,2013-01-06 11:13:00,
2013-01-06 06:28:00,27.6,26.0,29.86,ENE,59,11.0,13.0,94,0.00,,,0.00,weatherlink.com 1.10,2013-01-06 11:28:00,
2013-01-06 06:44:00,27.2,26.0,29.86,NE,55,11.0,14.0,94,0.00,,,0.00,weatherlink.com 1.10,2013-01-06 11:44:00,
2013-01-06 06:59:00,26.8,25.0,29.87,NE,39,11.0,17.0,94,0.00,,,0.00,weatherlink.com 1.10,2013-01-06 11:59:00,
2013-01-06 07:14:00,27.0,26.0,29.88,North,5,5.0,13.0,94,0.00,,,0.00,weatherlink.com 1.10,2013-01-06 12:14:00,
2013-01-06 07:29:00,26.9,25.0,29.88,NE,43,4.0,13.0,94,0.00,,,0.00,weatherlink.com 1.10,2013-01-06 12:29:00,
2013-01-06 07:44:00,26.6,25.0,29.88,ENE,73,8.0,11.0,94,0.00,,,0.00,weatherlink.com 1.10,2013-01-06 12:44:00,
2013-01-06 07:59:00,26.2,25.0,29.89,ENE,65,5.0,11.0,94,0.00,,,0.00,weatherlink.com 1.10,2013-01-06 12:59:00,
2013-01-06 08:14:00,26.3,25.0,29.90,NNE,24,6.0,12.0,94,0.00,,,0.00,weatherlink.com 1.10,2013-01-06 13:14:00,
2013-01-06 08:29:00,26.1,25.0,29.90,ENE,67,9.0,11.0,94,0.00,,,0.00,weatherlink.com 1.10,2013-01-06 13:29:00,
2013-01-06 08:43:00,26.0,25.0,29.91,ENE,68,10.0,12.0,94,0.00,,,0.00,weatherlink.com 1.10,2013-01-06 13:43:00,
2013-01-06 08:58:00,25.7,24.0,29.91,ENE,59,13.0,16.0,94,0.00,,,0.00,weatherlink.com 1.10,2013-01-06 13:58:00,
2013-01-06 09:13:00,25.3,24.0,29.92,NNE,21,10.0,17.0,93,0.00,,,0.00,weatherlink.com 1.10,2013-01-06 14:13:00,
2013-01-06 09:28:00,25.2,24.0,29.93,NW,307,5.0,15.0,93,0.00,,,0.00,weatherlink.com 1.10,2013-01-06 14:28:00,
2013-01-06 09:43:00,24.9,23.0,29.93,NE,42,9.0,16.0,93,0.00,,,0.00,weatherlink.com 1.10,2013-01-06 14:43:00,
2013-01-06 09:58:00,24.5,23.0,29.95,ENE,61,13.0,17.0,92,0.00,,,0.00,weatherlink.com 1.10,2013-01-06 14:58:00,
2013-01-06 10:13:00,24.4,22.0,29.95,NNE,28,6.0,15.0,92,0.00,,,0.00,weatherlink.com 1.10,2013-01-06 15:13:00,
2013-01-06 10:28:00,24.5,23.0,29.96,NE,38,7.0,16.0,92,0.00,,,0.00,weatherlink.com 1.10,2013-01-06 15:28:00,
2013-01-06 10:43:00,24.5,23.0,29.96,NE,51,12.0,15.0,92,0.00,,,0.00,weatherlink.com 1.10,2013-01-06 15:43:00,
2013-01-06 10:58:00,24.5,22.0,29.97,NNE,28,8.0,19.0,91,0.00,,,0.00,weatherlink.com 1.10,2013-01-06 15:58:00,
2013-01-06 11:13:00,24.7,22.0,29.97,NE,54,16.0,18.0,89,0.00,,,0.00,weatherlink.com 1.10,2013-01-06 16:13:00,
2013-01-06 11:28:00,24.5,22.0,29.98,NNW,344,5.0,15.0,90,0.00,,,0.00,weatherlink.com 1.10,2013-01-06 16:28:00,
2013-01-06 11:43:00,24.4,21.0,29.98,NE,53,8.0,13.0,88,0.00,,,0.00,weatherlink.com 1.10,2013-01-06 16:43:00,
2013-01-06 11:58:00,24.5,22.0,29.98,NNE,30,9.0,15.0,88,0.00,,,0.00,weatherlink.com 1.10,2013-01-06 16:58:00,
2013-01-06 12:13:00,24.6,21.0,29.98,NNW,348,13.0,14.0,87,0.00,,,0.00,weatherlink.com 1.10,2013-01-06 17:13:00,
2013-01-06 12:28:00,24.5,21.0,29.99,NE,37,8.0,14.0,86,0.00,,,0.00,weatherlink.com 1.10,2013-01-06 17:28:00,
2013-01-06 12:43:00,24.9,21.0,29.98,NNE,26,7.0,13.0,86,0.00,,,0.00,weatherlink.com 1.10,2013-01-06 17:43:00,
2013-01-06 12:58:00,24.8,21.0,29.98,NNW,338,9.0,13.0,85,0.00,,,0.00,weatherlink.com 1.10,2013-01-06 17:58:00,
2013-01-06 13:13:00,24.9,20.0,29.98,NE,39,8.0,12.0,83,0.00,,,0.00,weatherlink.com 1.10,2013-01-06 18:13:00,
2013-01-06 13:28:00,25.2,20.0,29.99,NNE,19,9.0,13.0,82,0.00,,,0.00,weatherlink.com 1.10,2013-01-06 18:28:00,
2013-01-06 13:43:00,25.1,20.0,29.99,North,355,7.0,13.0,80,0.00,,,0.00,weatherlink.com 1.10,2013-01-06 18:43:00,
2013-01-06 13:58:00,25.2,20.0,30.00,NNE,26,6.0,13.0,79,0.00,,,0.00,weatherlink.com 1.10,2013-01-06 18:58:00,
2013-01-06 14:13:00,25.1,19.0,30.02,North,9,5.0,15.0,79,0.00,,,0.00,weatherlink.com 1.10,2013-01-06 19:13:00,
2013-01-06 14:28:00,25.2,19.0,30.02,NNW,346,12.0,15.0,78,0.00,,,0.00,weatherlink.com 1.10,2013-01-06 19:28:00,
2013-01-06 14:43:00,25.4,19.0,30.04,NE,38,11.0,15.0,77,0.00,,,0.00,weatherlink.com 1.10,2013-01-06 19:43:00,
2013-01-06 14:59:00,25.0,19.0,30.05,NNW,342,7.0,13.0,77,0.00,,,0.00,weatherlink.com 1.10,2013-01-06 19:59:00,
2013-01-06 15:13:00,25.0,18.0,30.05,NW,324,16.0,16.0,76,0.00,,,0.00,weatherlink.com 1.10,2013-01-06 20:13:00,
2013-01-06 15:28:00,25.0,18.0,30.05,NNW,341,4.0,14.0,76,0.00,,,0.00,weatherlink.com 1.10,2013-01-06 20:28:00,
2013-01-06 15:43:00,25.1,18.0,30.07,NNW,340,6.0,12.0,75,0.00,,,0.00,weatherlink.com 1.10,2013-01-06 20:43:00,
2013-01-06 15:58:00,24.8,18.0,30.08,NNW,346,9.0,11.0,75,0.00,,,0.00,weatherlink.com 1.10,2013-01-06 20:58:00,
2013-01-06 16:13:00,24.9,18.0,30.09,NNW,340,12.0,13.0,75,0.00,,,0.00,weatherlink.com 1.10,2013-01-06 21:13:00,
2013-01-06 16:28:00,24.8,18.0,30.10,NNW,332,10.0,14.0,75,0.00,,,0.00,weatherlink.com 1.10,2013-01-06 21:28:00,
2013-01-06 16:44:00,24.4,18.0,30.11,NNE,13,7.0,14.0,75,0.00,,,0.00,weatherlink.com 1.10,2013-01-06 21:44:00,
2013-01-06 16:59:00,24.2,17.0,30.12,NNW,335,7.0,14.0,73,0.00,,,0.00,weatherlink.com 1.10,2013-01-06 21:59:00,
2013-01-06 17:14:00,24.3,17.0,30.13,NNW,342,13.0,14.0,74,0.00,,,0.00,weatherlink.com 1.10,2013-01-06 22:14:00,
2013-01-06 17:29:00,24.0,16.0,30.14,NNW,342,10.0,14.0,71,0.00,,,0.00,weatherlink.com 1.10,2013-01-06 22:29:00,
2013-01-06 17:44:00,23.9,16.0,30.15,NNW,334,12.0,14.0,72,0.00,,,0.00,weatherlink.com 1.10,2013-01-06 22:44:00,
2013-01-06 17:59:00,23.9,15.0,30.16,NNW,329,8.0,14.0,70,0.00,,,0.00,weatherlink.com 1.10,2013-01-06 22:59:00,
2013-01-06 18:14:00,24.0,17.0,30.18,NNW,340,8.0,15.0,73,0.00,,,0.00,weatherlink.com 1.10,2013-01-06 23:14:00,
2013-01-06 18:29:00,23.7,17.0,30.18,NNW,329,11.0,16.0,74,0.00,,,0.00,weatherlink.com 1.10,2013-01-06 23:29:00,
2013-01-06 18:44:00,23.4,16.0,30.19,NNW,340,12.0,15.0,74,0.00,,,0.00,weatherlink.com 1.10,2013-01-06 23:44:00,
2013-01-06 18:59:00,23.1,16.0,30.20,NNE,15,5.0,12.0,75,0.00,,,0.00,weatherlink.com 1.10,2013-01-06 23:59:00,
2013-01-06 19:14:00,22.7,16.0,30.20,North,360,10.0,13.0,76,0.00,,,0.00,weatherlink.com 1.10,2013-01-07 00:14:00,
2013-01-06 19:29:00,22.0,15.0,30.21,North,11,10.0,13.0,75,0.00,,,0.00,weatherlink.com 1.10,2013-01-07 00:29:00,
2013-01-06 19:44:00,21.5,15.0,30.22,NNE,28,10.0,12.0,75,0.00,,,0.00,weatherlink.com 1.10,2013-01-07 00:44:00,
2013-01-06 19:59:00,21.1,14.0,30.22,ENE,59,5.0,12.0,73,0.00,,,0.00,weatherlink.com 1.10,2013-01-07 00:59:00,
2013-01-06 20:14:00,20.7,13.0,30.23,NNW,336,4.0,12.0,72,0.00,,,0.00,weatherlink.com 1.10,2013-01-07 01:14:00,
2013-01-06 20:29:00,20.2,13.0,30.23,NE,42,13.0,13.0,72,0.00,,,0.00,weatherlink.com 1.10,2013-01-07 01:29:00,
2013-01-06 20:44:00,19.9,13.0,30.24,NNE,22,4.0,11.0,74,0.00,,,0.00,weatherlink.com 1.10,2013-01-07 01:44:00,
2013-01-06 20:59:00,19.7,13.0,30.25,ENE,63,3.0,10.0,75,0.00,,,0.00,weatherlink.com 1.10,2013-01-07 01:59:00,
2013-01-06 21:14:00,19.5,13.0,30.26,ENE,57,5.0,11.0,75,0.00,,,0.00,weatherlink.com 1.10,2013-01-07 02:14:00,
2013-01-06 21:29:00,19.2,13.0,30.26,ENE,61,5.0,8.0,76,0.00,,,0.00,weatherlink.com 1.10,2013-01-07 02:29:00,
2013-01-06 21:44:00,18.7,12.0,30.25,ENE,76,5.0,8.0,76,0.00,,,0.00,weatherlink.com 1.10,2013-01-07 02:44:00,
2013-01-06 22:00:00,17.9,12.0,30.25,East,90,2.0,5.0,76,0.00,,,0.00,weatherlink.com 1.10,2013-01-07 03:00:00,
2013-01-06 22:15:00,16.0,11.0,30.27,SE,127,1.0,2.0,79,0.00,,,0.00,weatherlink.com 1.10,2013-01-07 03:15:00,
2013-01-06 22:30:00,14.3,10.0,30.27,ESE,102,1.0,3.0,83,0.00,,,0.00,weatherlink.com 1.10,2013-01-07 03:30:00,
2013-01-06 22:45:00,13.1,9.0,30.27,ESE,105,0.0,2.0,84,0.00,,,0.00,weatherlink.com 1.10,2013-01-07 03:45:00,
2013-01-06 23:00:00,14.0,11.0,30.28,South,189,1.0,4.0,86,0.00,,,0.00,weatherlink.com 1.10,2013-01-07 04:00:00,
2013-01-06 23:15:00,14.0,10.0,30.28,SSE,155,1.0,2.0,85,0.00,,,0.00,weatherlink.com 1.10,2013-01-07 04:15:00,
2013-01-06 23:30:00,15.7,12.0,30.29,SSE,159,2.0,7.0,86,0.00,,,0.00,weatherlink.com 1.10,2013-01-07 04:30:00,
2013-01-06 23:45:00,16.1,12.0,30.29,SE,127,4.0,6.0,85,0.00,,,0.00,weatherlink.com 1.10,2013-01-07 04:45:00,